Regional Weather Roundup
Issued by NWS

Home | Current Version | Previous Version | Graphics & Text | Print | Product List | Glossary On
Versions: 1 2 3 4 5 6 7 8 9 10 11 12 13 14 15 16 17 18 19 20 21 22 23 24 25 26 27 28 29 30 31 32 33 34 35 36 37 38 39 40 41 42 43 44 45 46 47 48 49 50
000
ASUS45 KSLC 231310
RWRUT

UTAH REGIONAL WEATHER ROUNDUP
NATIONAL WEATHER SERVICE SALT LAKE CITY UT
700 AM MDT MON MAY 23 2016

UTZ001>011-023>025-231400-

NORTHERN UTAH

CITY           SKY/WX    TMP DP  RH WIND       PRES   REMARKS
BRIGHAM CITY     N/A     43  39  86 SE8       29.94F
HILL AFB       PTCLDY    42  34  72 E14       29.94S
LOGAN          MOCLDY    40  40 100 CALM      29.96S
OGDEN          CLOUDY    43  37  79 S6        29.93F
PROVO AIRPORT  MOCLDY    45  32  61 SE8       29.94
SALT LAKE CITY PTCLDY    45  41  86 S5        29.94S
VERNAL         CLOUDY    41  27  57 W5        29.98R
WENDOVER       MOCLDY    50  34  53 CALM      29.94R
HEBER CITY     MOCLDY    36  32  87 CALM      29.96S
WEST JORDAN    CLEAR     41  37  87 CALM      29.96R

$$

UTZ012>022-026-027-231400-

SOUTHERN/CENTRAL UTAH

CITY           SKY/WX    TMP DP  RH WIND       PRES   REMARKS
BLANDING       PTCLDY    44  25  46 E6        30.01R
BRYCE CANYON   MOCLDY    32  20  61 W8        30.00R WCI  25
CEDAR CITY     PTCLDY    35  23  61 CALM      29.91S
DELTA          MOCLDY    41  32  70 N7        29.90S
HANKSVILLE     CLEAR     41  21  45 CALM      29.92R
MILFORD        MOCLDY    37  25  61 S3        29.92R
MOAB/CYNLANDS  PTCLDY    51  25  36 W6        29.88S
PRICE          MOCLDY    42  21  43 N3        29.94R
ST GEORGE      PTSUNNY   52  18  25 S3        29.88R
KANAB          CLEAR     37  27  65 CALM      29.97R

$$

REGIONAL REPORTS     COLORADO/ARIZONA

CITY           SKY/WX    TMP DP  RH WIND       PRES   REMARKS
CRAIG, CO      SUNNY     32  29  88 CALM      30.03S
GRAND JUNCTION CLOUDY    43  29  57 CALM      29.93R
RIFLE          CLOUDY    39  30  70 CALM      29.99R
MONTROSE       CLOUDY    42  27  55 SE7       29.98S
CORTEZ         CLOUDY    37  29  72 CALM      29.98R
PAGE, AZ       PTCLDY    56  23  27 CALM      29.88S
GRAND CANYON   CLEAR     30  17  58 CALM      30.00S
KINGMAN        CLEAR     51  19  28 CALM      29.87S
FLAGSTAFF      CLEAR     33  21  61 CALM      30.01S

$$

REGIONAL REPORTS    NEVADA/IDAHO/WYOMING

CITY           SKY/WX    TMP DP  RH WIND       PRES   REMARKS
LAS VEGAS, NV  CLEAR     64  32  30 S10       29.77R
ELY            MOCLDY    34  27  75 SE3       29.95S
ELKO           CLEAR     38  34  85 CALM      29.92S
POCATELLO, ID  CLEAR     37  33  85 CALM      29.95S
BURLEY         CLEAR     38  35  89 S3        29.93S
EVANSTON, WY   CLOUDY    35  26  69 CALM      29.99R
ROCK SPRINGS   CLOUDY    34  31  88 SW5       30.00R WCI  30
KEMMERER         N/A     32  28  86 CALM      30.00

$$



USA.gov is the U.S. government's official web portal to all federal, state and local government web resources and services.